Date String (YYYY-MM-DD hh:mm:ss) UTC,Instrument flags,Ambient pressure (hPa),Sample flow (lpm),Bypass flow (lpm),Sample temperature (°C),Ambient temperature (°C),ASC tube jacket temperature (°C),LED temperature (°C),Box temperature (°C),Sample RH (%),Span deviation,Mass concentration (μg/m³),Mass concentration (μg/m³),Mass concentration (μg/m³)
DateTimeUTC,F1_M11,P_M11,Q1_M11,Q2_M11,T1_M11,T2_M11,T3_M11,T4_M11,T5_M11,U1_M11,ZSPAN_M11,X0_M11,X2_M11,X1_M11
2022-12-14 11:00:00,,0813.2,5.02,0.00,22.4,20.9,00.0,31.3,24.1,10.4,-000.8,0021.65,0010.53,0008.62
2022-12-14 11:01:00,,0813.3,4.97,0.00,22.4,20.7,00.0,31.3,24.1,10.4,-000.2,0021.34,0010.52,0008.60
2022-12-14 11:02:00,,0813.2,5.04,0.00,22.3,20.7,00.0,31.2,24.1,10.4,-000.4,0021.29,0010.57,0008.61
2022-12-14 11:03:00,,0813.2,4.96,0.00,22.4,21.5,00.0,31.2,24.2,10.4,-000.1,0021.97,0010.57,0008.60
2022-12-14 11:04:00,,0813.2,5.02,0.00,22.5,22.3,00.0,31.2,24.4,10.4,0000.5,0021.99,0010.54,0008.58
2022-12-14 11:05:00,,0813.2,4.97,0.00,22.6,22.3,00.0,31.3,24.5,10.4,0001.0,0021.89,0010.50,0008.53
2022-12-14 11:06:00,,0813.2,5.02,0.00,22.5,22.0,00.0,31.3,24.4,10.4,0001.2,0021.05,0010.43,0008.49
2022-12-14 11:07:00,,0813.2,5.01,0.00,22.5,21.7,00.0,31.3,24.3,10.4,0001.2,0019.80,0010.30,0008.45
2022-12-14 11:08:00,,0813.3,4.97,0.00,22.5,21.5,00.0,31.3,24.3,10.5,0000.5,0019.67,0010.22,0008.42
2022-12-14 11:09:00,,0813.3,5.01,0.00,22.5,21.3,00.0,31.3,24.2,10.5,0000.9,0019.55,0010.21,0008.41
2022-12-14 11:10:00,,0813.3,5.01,0.00,22.4,21.1,00.0,31.3,24.2,10.5,0001.3,0018.41,0010.13,0008.39
2022-12-14 11:11:00,,0813.3,5.01,0.00,22.4,21.0,00.0,31.3,24.2,10.6,0001.0,0018.13,0010.13,0008.37
2022-12-14 11:12:00,,0813.3,5.00,0.00,22.4,21.0,00.0,31.3,24.2,10.6,0001.0,0018.31,0010.18,0008.38
2022-12-14 11:13:00,,0813.3,4.99,0.00,22.4,20.9,00.0,31.3,24.2,10.6,0001.9,0018.33,0010.15,0008.37
2022-12-14 11:14:00,,0813.4,5.00,0.00,22.4,20.9,00.0,31.3,24.2,10.7,0002.0,0018.96,0010.08,0008.36
2022-12-14 11:15:00,,0813.5,5.00,0.00,22.4,20.9,00.0,31.3,24.2,10.7,0001.4,0019.66,0010.08,0008.35
2022-12-14 11:16:00,,0813.6,5.00,0.00,22.4,20.8,00.0,31.2,24.1,10.7,0001.1,0020.56,0010.04,0008.35
2022-12-14 11:17:00,,0813.5,5.00,0.00,22.3,20.7,00.0,31.2,24.1,10.7,0000.6,0021.35,0010.03,0008.36
2022-12-14 11:18:00,,0813.5,5.00,0.00,22.3,20.7,00.0,31.2,24.1,10.8,0000.5,0022.19,0010.05,0008.36
2022-12-14 11:19:00,,0813.5,4.99,0.00,22.3,20.7,00.0,31.2,24.1,10.8,0001.0,0022.76,0010.05,0008.35
2022-12-14 11:20:00,,0813.6,5.01,0.00,22.4,21.4,00.0,31.2,24.2,10.8,0000.4,0022.67,0009.95,0008.30
2022-12-14 11:21:00,,0813.6,4.98,0.00,22.4,22.3,00.0,31.2,24.4,10.8,0000.2,0023.33,0009.90,0008.27
2022-12-14 11:22:00,,0813.5,5.02,0.00,22.5,22.3,00.0,31.3,24.4,10.7,0000.1,0023.32,0009.88,0008.22
2022-12-14 11:23:00,,0813.5,4.98,0.00,22.5,22.0,00.0,31.3,24.4,10.7,-000.3,0023.14,0009.72,0008.15
2022-12-14 11:24:00,,0813.5,5.01,0.00,22.5,21.7,00.0,31.3,24.3,10.7,-000.9,0023.17,0009.61,0008.07
2022-12-14 11:25:00,,0813.5,5.01,0.00,22.5,21.5,00.0,31.3,24.3,10.8,-000.8,0021.92,0009.58,0008.00
2022-12-14 11:26:00,,0813.5,5.01,0.00,22.5,21.3,00.0,31.3,24.3,10.8,-001.2,0021.38,0009.54,0007.93
2022-12-14 11:27:00,,0813.5,4.98,0.00,22.5,21.2,00.0,31.3,24.3,10.8,-001.3,0020.57,0009.44,0007.86
2022-12-14 11:28:00,,0813.5,5.00,0.00,22.4,21.1,00.0,31.3,24.3,10.8,-001.1,0020.25,0009.41,0007.78
2022-12-14 11:29:00,,0813.5,5.01,0.00,22.4,21.1,00.0,31.3,24.2,10.8,-001.1,0019.30,0009.30,0007.71
2022-12-14 11:30:00,,0813.6,5.01,0.00,22.4,21.0,00.0,31.3,24.2,10.8,-001.3,0018.50,0009.13,0007.62
2022-12-14 11:31:00,,0813.9,5.00,0.00,22.4,20.9,00.0,31.3,24.2,10.8,-000.8,0018.20,0009.07,0007.55
2022-12-14 11:32:00,,0814.1,5.00,0.00,22.4,20.9,00.0,31.3,24.2,10.8,-000.4,0017.72,0009.03,0007.50
2022-12-14 11:33:00,,0813.9,5.00,0.00,22.4,20.9,00.0,31.3,24.2,10.8,-000.2,0018.12,0008.95,0007.44
2022-12-14 11:34:00,,0813.6,5.00,0.00,22.4,20.8,00.0,31.3,24.1,10.8,0000.1,0018.17,0008.87,0007.37
2022-12-14 11:35:00,,0813.6,5.00,0.00,22.4,20.7,00.0,31.3,24.1,10.8,0000.2,0017.71,0008.80,0007.29
2022-12-14 11:36:00,,0814.0,5.00,0.00,22.3,20.6,00.0,31.2,24.1,10.9,0000.5,0017.63,0008.69,0007.23
2022-12-14 11:37:00,,0814.0,5.01,0.00,22.3,20.6,00.0,31.2,24.1,10.9,0001.4,0017.12,0008.58,0007.18
2022-12-14 11:38:00,,0813.9,5.01,0.00,22.3,21.2,00.0,31.2,24.2,10.9,0001.8,0016.82,0008.53,0007.15
2022-12-14 11:39:00,,0813.9,4.97,0.00,22.4,22.2,00.0,31.2,24.3,10.9,0001.2,0016.05,0008.40,0007.12
2022-12-14 11:40:00,,0814.2,5.01,0.00,22.5,22.3,00.0,31.2,24.4,10.9,0001.3,0016.19,0008.37,0007.09
2022-12-14 11:41:00,,0814.2,5.02,0.00,22.5,22.0,00.0,31.3,24.4,10.9,0001.2,0016.39,0008.39,0007.08
2022-12-14 11:42:00,,0814.2,4.97,0.00,22.5,21.7,00.0,31.3,24.3,10.9,0001.0,0016.83,0008.37,0007.06
2022-12-14 11:43:00,,0814.1,5.01,0.00,22.5,21.5,00.0,31.3,24.3,10.9,0001.1,0016.38,0008.31,0007.04
2022-12-14 11:44:00,,0813.9,5.01,0.00,22.4,21.2,00.0,31.3,24.2,10.8,0000.5,0015.75,0008.11,0006.93
2022-12-14 11:45:00,,0814.3,5.00,0.00,22.4,20.8,00.0,31.3,24.1,10.6,0000.0,0015.08,0007.89,0006.73
2022-12-14 11:46:00,,0813.9,4.99,0.00,22.3,20.6,00.0,31.2,24.0,10.5,-000.1,0014.49,0007.57,0006.51
2022-12-14 11:47:00,,0813.9,5.03,0.00,22.3,20.4,00.0,31.2,24.0,10.4,-001.1,0013.67,0007.24,0006.29
2022-12-14 11:48:00,,0814.2,4.95,0.00,22.2,20.3,00.0,31.2,23.9,10.4,-001.8,0013.06,0006.92,0006.05
2022-12-14 11:49:00,,0814.2,5.05,0.00,22.2,20.2,00.0,31.2,23.9,10.4,-001.8,0012.55,0006.62,0005.81
2022-12-14 11:50:00,,0814.3,4.95,0.00,22.2,20.2,00.0,31.2,23.8,10.3,-000.3,0013.34,0006.37,0005.57
2022-12-14 11:51:00,,0814.0,5.04,0.00,22.2,20.6,00.0,31.1,23.9,10.3,0000.0,0013.00,0006.08,0005.34
2022-12-14 11:52:00,,0813.9,4.96,0.00,22.2,21.6,00.0,31.1,24.1,10.2,0000.0,0012.22,0005.70,0005.06
2022-12-14 11:53:00,,0814.3,5.02,0.00,22.3,22.1,00.0,31.1,24.2,10.1,0000.0,0010.81,0005.31,0004.76
2022-12-14 11:54:00,,0814.0,5.01,0.00,22.3,21.7,00.0,31.1,24.2,10.1,0000.0,0010.57,0004.95,0004.46
2022-12-14 11:55:00,,0813.9,4.97,0.00,22.3,21.4,00.0,31.2,24.1,10.1,0000.0,0010.46,0004.72,0004.23
2022-12-14 11:56:00,,0814.1,5.01,0.00,22.3,21.1,00.0,31.1,24.0,10.0,0000.0,0009.82,0004.56,0004.12
2022-12-14 11:57:00,,0814.0,5.01,0.00,22.3,20.8,00.0,31.1,24.0,10.0,0000.0,0009.86,0004.52,0004.06
2022-12-14 11:58:00,,0814.2,5.00,0.00,22.2,20.6,00.0,31.1,23.9,10.0,0000.0,0009.89,0004.52,0004.01
2022-12-14 11:59:00,,0814.1,5.00,0.00,22.2,20.5,00.0,31.1,23.9,10.0,0000.0,0010.29,0004.46,0003.96
